AIQ728 VTCC-VTBD

Flight info

Callsign AIQ728
Flight time 0h 52m
Altitude 37000
Route PANTA2S PANTA Y7 BLAFF NAKON3A
Aircraft A320/M-SDE3FGHIRWY/LB1

Departure

Time 2026-04-22 14:44
Airport Chiang Mai International Airport (VTCC)

Arrival

Time 2026-04-22 15:36
Airport Don Mueang International Airport (VTBD)
Time Latitude Longitude Altitude Speed Heading
2026-04-22 14:35 18.76908 98.96739 1032 ft 0 kts 90°
2026-04-22 14:36 18.76908 98.96733 1032 ft 2 kts 90°
2026-04-22 14:36 18.76908 98.96716 1032 ft 2 kts 90°
2026-04-22 14:36 18.76908 98.96699 1032 ft 2 kts 90°
2026-04-22 14:37 18.76908 98.96682 1032 ft 2 kts 90°
2026-04-22 14:37 18.76908 98.96664 1032 ft 2 kts 88°
2026-04-22 14:37 18.76904 98.96648 1032 ft 2 kts
2026-04-22 14:37 18.76887 98.96647 1032 ft 2 kts
2026-04-22 14:38 18.76877 98.96647 1032 ft 0 kts 359°
2026-04-22 14:39 18.76883 98.96647 1032 ft 4 kts 360°
2026-04-22 14:40 18.77036 98.96625 1032 ft 17 kts 333°
2026-04-22 14:40 18.77124 98.96543 1032 ft 15 kts 306°
2026-04-22 14:40 18.77232 98.96519 1032 ft 19 kts 360°
2026-04-22 14:40 18.77392 98.96519 1032 ft 26 kts
2026-04-22 14:41 18.77580 98.96519 1032 ft 28 kts
2026-04-22 14:41 18.77775 98.96520 1032 ft 28 kts
2026-04-22 14:41 18.77952 98.96520 1032 ft 24 kts
2026-04-22 14:41 18.78077 98.96502 1032 ft 15 kts 310°
2026-04-22 14:42 18.78088 98.96401 1032 ft 14 kts 269°
2026-04-22 14:42 18.78086 98.96303 1032 ft 10 kts 264°
2026-04-22 14:42 18.78040 98.96292 1032 ft 2 kts 180°
2026-04-22 14:43 18.78039 98.96292 1032 ft 2 kts 180°
2026-04-22 14:43 18.77868 98.96292 1032 ft 61 kts 180°
2026-04-22 14:43 18.77206 98.96290 1032 ft 126 kts 180°
2026-04-22 14:43 18.76160 98.96283 1079 ft 170 kts 181°
2026-04-22 14:44 18.75003 98.96279 1797 ft 165 kts 180°
2026-04-22 14:44 18.73856 98.96279 2413 ft 166 kts 181°
2026-04-22 14:44 18.72622 98.96277 2730 ft 188 kts 182°
2026-04-22 14:44 18.71230 98.96274 2995 ft 212 kts 182°
2026-04-22 14:45 18.69669 98.96268 3322 ft 236 kts 182°
2026-04-22 14:45 18.67982 98.96501 3677 ft 263 kts 160°
2026-04-22 14:45 18.66360 98.97574 4219 ft 279 kts 144°
2026-04-22 14:45 18.64793 98.98827 4983 ft 285 kts 143°
2026-04-22 14:46 18.63226 99.00092 5800 ft 289 kts 143°
2026-04-22 14:46 18.61622 99.01389 6631 ft 292 kts 143°
2026-04-22 14:46 18.60003 99.02693 7465 ft 294 kts 143°
2026-04-22 14:46 18.58371 99.04004 8306 ft 296 kts 143°
2026-04-22 14:47 18.56722 99.05325 9149 ft 298 kts 143°
2026-04-22 14:47 18.55057 99.06657 9963 ft 301 kts 143°
2026-04-22 14:47 18.53329 99.08037 10328 ft 322 kts 143°
2026-04-22 14:47 18.51512 99.09488 10704 ft 338 kts 143°
2026-04-22 14:48 18.49609 99.11007 11300 ft 346 kts 143°
2026-04-22 14:48 18.47683 99.12541 12046 ft 349 kts 143°
2026-04-22 14:48 18.45734 99.14093 12742 ft 353 kts 143°
2026-04-22 14:48 18.43762 99.15663 13430 ft 356 kts 143°
2026-04-22 14:49 18.41769 99.17252 14030 ft 361 kts 143°
2026-04-22 14:49 18.39759 99.18856 14607 ft 365 kts 143°
2026-04-22 14:49 18.37722 99.20483 15178 ft 368 kts 143°
2026-04-22 14:49 18.35665 99.22125 15741 ft 373 kts 144°
2026-04-22 14:50 18.33617 99.23755 16346 ft 375 kts 144°
2026-04-22 14:50 18.31523 99.25420 16928 ft 379 kts 144°
2026-04-22 14:50 18.29407 99.27102 17508 ft 382 kts 144°
2026-04-22 14:50 18.27273 99.28801 18077 ft 386 kts 144°
2026-04-22 14:51 18.25119 99.30517 18578 ft 389 kts 144°
2026-04-22 14:51 18.22840 99.32058 19046 ft 390 kts 155°
2026-04-22 14:51 18.20309 99.33088 19527 ft 391 kts 165°
2026-04-22 14:51 18.17704 99.33951 20004 ft 394 kts 165°
2026-04-22 14:52 18.15079 99.34821 20481 ft 396 kts 165°
2026-04-22 14:52 18.12441 99.35698 20955 ft 399 kts 165°
2026-04-22 14:52 18.09784 99.36583 21423 ft 402 kts 165°
2026-04-22 14:52 18.07101 99.37478 21891 ft 405 kts 165°
2026-04-22 14:53 18.04410 99.38379 22347 ft 407 kts 165°
2026-04-22 14:53 18.01702 99.39285 22794 ft 410 kts 165°
2026-04-22 14:53 17.98975 99.40197 23259 ft 412 kts 165°
2026-04-22 14:53 17.96266 99.41102 23635 ft 415 kts 165°
2026-04-22 14:54 17.93505 99.42020 23999 ft 418 kts 165°
2026-04-22 14:54 17.90718 99.42948 24364 ft 420 kts 165°
2026-04-22 14:54 17.87922 99.43883 24726 ft 423 kts 165°
2026-04-22 14:54 17.85105 99.44825 25078 ft 426 kts 165°
2026-04-22 14:55 17.82261 99.45773 25428 ft 429 kts 165°
2026-04-22 14:55 17.79411 99.46723 25779 ft 431 kts 165°
2026-04-22 14:55 17.76541 99.47680 26131 ft 434 kts 165°
2026-04-22 14:55 17.73651 99.48641 26481 ft 436 kts 165°
2026-04-22 14:56 17.70750 99.49604 26823 ft 439 kts 165°
2026-04-22 14:56 17.67826 99.50579 27146 ft 441 kts 164°
2026-04-22 14:56 17.64889 99.51561 27471 ft 444 kts 164°
2026-04-22 14:56 17.61970 99.52534 27792 ft 447 kts 164°
2026-04-22 14:57 17.59000 99.53522 28110 ft 449 kts 165°
2026-04-22 14:57 17.56010 99.54516 28423 ft 452 kts 165°
2026-04-22 14:57 17.52996 99.55517 28740 ft 454 kts 165°
2026-04-22 14:57 17.49976 99.56521 29045 ft 457 kts 164°
2026-04-22 14:58 17.46930 99.57530 29377 ft 459 kts 164°
2026-04-22 14:58 17.43872 99.58543 29690 ft 461 kts 164°
2026-04-22 14:58 17.40841 99.59548 29967 ft 464 kts 164°
2026-04-22 14:58 17.37750 99.60573 30236 ft 466 kts 164°
2026-04-22 14:59 17.34654 99.61598 30505 ft 467 kts 164°
2026-04-22 14:59 17.31548 99.62626 30778 ft 468 kts 164°
2026-04-22 14:59 17.28433 99.63658 31048 ft 470 kts 165°
2026-04-22 14:59 17.25306 99.64693 31321 ft 471 kts 165°
2026-04-22 15:00 17.22191 99.65726 31695 ft 469 kts 165°
2026-04-22 15:00 17.19081 99.66755 32087 ft 467 kts 165°
2026-04-22 15:00 17.16022 99.67766 32484 ft 466 kts 165°
2026-04-22 15:00 17.12933 99.68789 32893 ft 464 kts 165°
2026-04-22 15:01 17.09856 99.69806 33284 ft 462 kts 165°
2026-04-22 15:01 17.06792 99.70820 33689 ft 461 kts 165°
2026-04-22 15:01 17.03736 99.71834 34027 ft 459 kts 165°
2026-04-22 15:01 17.00691 99.72842 34337 ft 459 kts 165°
2026-04-22 15:02 16.97647 99.73848 34638 ft 458 kts 165°
2026-04-22 15:02 16.94612 99.74849 34938 ft 457 kts 165°
2026-04-22 15:02 16.91621 99.75834 35223 ft 456 kts 165°
2026-04-22 15:02 16.88589 99.76831 35507 ft 456 kts 165°
2026-04-22 15:03 16.85563 99.77826 35783 ft 455 kts 165°
2026-04-22 15:03 16.82542 99.78822 36052 ft 455 kts 165°
2026-04-22 15:03 16.79520 99.79821 36307 ft 454 kts 165°
2026-04-22 15:03 16.76505 99.80818 36565 ft 454 kts 165°
2026-04-22 15:04 16.73489 99.81814 36724 ft 454 kts 165°
2026-04-22 15:04 16.70484 99.82805 36763 ft 451 kts 165°
2026-04-22 15:04 16.64548 99.84755 36761 ft 450 kts 165°
2026-04-22 15:05 16.58566 99.86713 36760 ft 450 kts 165°
2026-04-22 15:05 16.52583 99.88684 36760 ft 451 kts 165°
2026-04-22 15:06 16.46600 99.90648 36761 ft 450 kts 165°
2026-04-22 15:06 16.41228 99.92410 36759 ft 450 kts 164°
2026-04-22 15:07 16.35247 99.94381 36763 ft 450 kts 164°
2026-04-22 15:07 16.29264 99.96352 36764 ft 450 kts 164°
2026-04-22 15:08 16.23287 99.98324 36763 ft 450 kts 164°
2026-04-22 15:08 16.17311 100.00299 36764 ft 450 kts 164°
2026-04-22 15:09 16.11368 100.02262 36768 ft 451 kts 164°
2026-04-22 15:09 16.05389 100.04234 36776 ft 450 kts 164°
2026-04-22 15:10 16.02394 100.05220 36610 ft 451 kts 163°
2026-04-22 15:10 15.99415 100.06224 36349 ft 449 kts 163°
2026-04-22 15:10 15.96465 100.07255 35859 ft 446 kts 162°
2026-04-22 15:10 15.93542 100.08300 35329 ft 444 kts 162°
2026-04-22 15:11 15.90628 100.09353 34799 ft 442 kts 162°
2026-04-22 15:11 15.87731 100.10400 34270 ft 440 kts 162°
2026-04-22 15:11 15.84836 100.11440 33720 ft 439 kts 162°
2026-04-22 15:11 15.81947 100.12470 33149 ft 437 kts 162°
2026-04-22 15:12 15.79079 100.13486 32637 ft 434 kts 162°
2026-04-22 15:12 15.76227 100.14492 32096 ft 431 kts 162°
2026-04-22 15:12 15.73393 100.15490 31589 ft 429 kts 162°
2026-04-22 15:12 15.70578 100.16482 31079 ft 426 kts 162°
2026-04-22 15:13 15.67771 100.17473 30585 ft 424 kts 162°
2026-04-22 15:13 15.64988 100.18456 30099 ft 422 kts 162°
2026-04-22 15:13 15.62215 100.19435 29573 ft 419 kts 162°
2026-04-22 15:13 15.59499 100.20397 29103 ft 415 kts 162°
2026-04-22 15:14 15.56784 100.21357 28650 ft 410 kts 162°
2026-04-22 15:14 15.54094 100.22306 28204 ft 405 kts 162°
2026-04-22 15:14 15.51434 100.23247 27770 ft 401 kts 162°
2026-04-22 15:14 15.48802 100.24179 27311 ft 397 kts 162°
2026-04-22 15:15 15.46198 100.25100 26863 ft 394 kts 162°
2026-04-22 15:15 15.43609 100.26013 26409 ft 391 kts 162°
2026-04-22 15:15 15.41042 100.26918 25941 ft 389 kts 162°
2026-04-22 15:15 15.38488 100.27817 25478 ft 387 kts 161°
2026-04-22 15:16 15.35976 100.28702 25005 ft 386 kts 161°
2026-04-22 15:16 15.33442 100.29595 24521 ft 385 kts 161°
2026-04-22 15:16 15.30906 100.30487 24021 ft 385 kts 161°
2026-04-22 15:16 15.28374 100.31379 23525 ft 384 kts 161°
2026-04-22 15:17 15.25840 100.32271 22971 ft 384 kts 161°
2026-04-22 15:17 15.23313 100.33162 22470 ft 382 kts 161°
2026-04-22 15:17 15.20799 100.34050 21985 ft 380 kts 161°
2026-04-22 15:17 15.19141 100.34635 21665 ft 379 kts 161°
2026-04-22 15:18 15.15812 100.35808 21036 ft 376 kts 161°
2026-04-22 15:18 15.14172 100.36385 20725 ft 375 kts 161°
2026-04-22 15:18 15.11702 100.37254 20260 ft 374 kts 161°
2026-04-22 15:18 15.09242 100.38119 19793 ft 373 kts 161°
2026-04-22 15:19 15.06789 100.38981 19326 ft 371 kts 161°
2026-04-22 15:19 15.04346 100.39839 18872 ft 370 kts 161°
2026-04-22 15:19 15.01911 100.40693 18457 ft 368 kts 160°
2026-04-22 15:19 14.99499 100.41539 18128 ft 363 kts 160°
2026-04-22 15:20 14.97116 100.42377 17666 ft 361 kts 160°
2026-04-22 15:20 14.94737 100.43214 17203 ft 359 kts 160°
2026-04-22 15:20 14.92374 100.44043 16756 ft 357 kts 160°
2026-04-22 15:20 14.90057 100.44855 16341 ft 355 kts 160°
2026-04-22 15:21 14.87725 100.45673 15924 ft 352 kts 160°
2026-04-22 15:21 14.85412 100.46488 15533 ft 350 kts 160°
2026-04-22 15:21 14.83110 100.47301 15135 ft 347 kts 160°
2026-04-22 15:21 14.80827 100.48106 14749 ft 345 kts 160°
2026-04-22 15:22 14.78559 100.48903 14375 ft 343 kts 160°
2026-04-22 15:22 14.76298 100.49692 14001 ft 341 kts 160°
2026-04-22 15:22 14.74056 100.50474 13632 ft 339 kts 160°
2026-04-22 15:22 14.71824 100.51258 13219 ft 337 kts 160°
2026-04-22 15:23 14.69606 100.52023 12887 ft 333 kts 162°
2026-04-22 15:23 14.67416 100.52697 12741 ft 323 kts 163°
2026-04-22 15:23 14.65287 100.53301 12446 ft 319 kts 164°
2026-04-22 15:23 14.63119 100.53895 12106 ft 317 kts 165°
2026-04-22 15:24 14.61019 100.54470 11751 ft 315 kts 164°
2026-04-22 15:24 14.58908 100.55055 11410 ft 314 kts 164°
2026-04-22 15:24 14.56808 100.55645 11053 ft 312 kts 164°
2026-04-22 15:24 14.54718 100.56240 10664 ft 310 kts 164°
2026-04-22 15:25 14.52649 100.56830 10038 ft 307 kts 164°
2026-04-22 15:25 14.50593 100.57416 9409 ft 304 kts 165°
2026-04-22 15:25 14.48567 100.57993 8755 ft 300 kts 165°
2026-04-22 15:25 14.46567 100.58565 8143 ft 297 kts 165°
2026-04-22 15:26 14.44582 100.59133 7867 ft 291 kts 165°
2026-04-22 15:26 14.42670 100.59680 7746 ft 279 kts 165°
2026-04-22 15:26 14.40832 100.60204 7620 ft 268 kts 165°
2026-04-22 15:26 14.39061 100.60709 7412 ft 261 kts 165°
2026-04-22 15:27 14.37327 100.61203 7233 ft 256 kts 165°
2026-04-22 15:27 14.35601 100.61694 7054 ft 258 kts 166°
2026-04-22 15:27 14.33865 100.62188 6845 ft 258 kts 166°
2026-04-22 15:27 14.32164 100.62671 6635 ft 256 kts 166°
2026-04-22 15:28 14.30453 100.63157 6431 ft 255 kts 166°
2026-04-22 15:28 14.28748 100.63642 6222 ft 253 kts 166°
2026-04-22 15:28 14.27053 100.64125 6006 ft 251 kts 165°
2026-04-22 15:28 14.25373 100.64605 5790 ft 250 kts 166°
2026-04-22 15:29 14.23707 100.65083 5595 ft 247 kts 165°
2026-04-22 15:29 14.22057 100.65554 5384 ft 245 kts 165°
2026-04-22 15:29 14.20417 100.66019 5186 ft 243 kts 165°
2026-04-22 15:30 14.17163 100.66946 4648 ft 241 kts 164°
2026-04-22 15:30 14.15581 100.67398 4360 ft 238 kts 164°
2026-04-22 15:30 14.13989 100.67852 4021 ft 236 kts 164°
2026-04-22 15:30 14.12399 100.68303 3600 ft 239 kts 164°
2026-04-22 15:31 14.10830 100.68749 3332 ft 226 kts 164°
2026-04-22 15:31 14.09367 100.69166 3192 ft 210 kts 164°
2026-04-22 15:31 14.07988 100.69391 3124 ft 193 kts 180°
2026-04-22 15:31 14.06708 100.69117 2949 ft 186 kts 200°
2026-04-22 15:32 14.05578 100.68506 2736 ft 181 kts 205°
2026-04-22 15:32 14.04504 100.67902 2519 ft 176 kts 205°
2026-04-22 15:32 14.03445 100.67307 2304 ft 170 kts 205°
2026-04-22 15:32 14.02448 100.66747 2088 ft 156 kts 205°
2026-04-22 15:33 14.01529 100.66231 1891 ft 145 kts 205°
2026-04-22 15:33 14.00655 100.65740 1714 ft 141 kts 205°
2026-04-22 15:33 13.99798 100.65260 1537 ft 140 kts 205°
2026-04-22 15:33 13.98955 100.64787 1354 ft 140 kts 205°
2026-04-22 15:34 13.98096 100.64305 1177 ft 140 kts 206°
2026-04-22 15:34 13.97247 100.63829 998 ft 139 kts 206°
2026-04-22 15:34 13.96399 100.63354 847 ft 139 kts 206°
2026-04-22 15:34 13.95536 100.62881 687 ft 140 kts 206°
2026-04-22 15:35 13.94674 100.62399 513 ft 140 kts 207°
2026-04-22 15:35 13.93824 100.61918 308 ft 141 kts 208°
2026-04-22 15:35 13.92972 100.61434 126 ft 140 kts 207°
2026-04-22 15:35 13.92127 100.60962 20 ft 130 kts 208°
2026-04-22 15:36 13.91495 100.60601 15 ft 79 kts 208°
2026-04-22 15:36 13.91199 100.60434 17 ft 30 kts 216°
2026-04-22 15:36 13.91099 100.60293 17 ft 21 kts 239°
2026-04-22 15:36 13.91038 100.60190 18 ft 13 kts 238°
2026-04-22 15:37 13.90984 100.60099 17 ft 16 kts 238°
2026-04-22 15:37 13.90921 100.59993 18 ft 19 kts 238°
2026-04-22 15:37 13.90867 100.59901 17 ft 15 kts 238°
2026-04-22 15:37 13.90781 100.59833 17 ft 16 kts 209°
2026-04-22 15:38 13.90722 100.59792 17 ft 10 kts 245°
2026-04-22 15:38 13.90746 100.59742 17 ft 1 kts 299°
2026-04-22 15:38 13.90754 100.59727 19 ft 4 kts 298°
2026-04-22 15:39 13.90757 100.59721 18 ft 0 kts 298°